Stations météo

Publicité
Paris-Montsouris, France (7156): Température de l'air & dewpoint: 16.08.2018 01:00:00 - 22.08.2018 01:00:00 (CEST)Paris-Montsouris, France (7156): Température de l'air 5cm: 16.08.2018 01:00:00 - 22.08.2018 01:00:00 (CEST)Paris-Montsouris, France (7156): Température de l'air -20cm & Température de l'air -100cm: 16.08.2018 01:00:00 - 22.08.2018 01:00:00 (CEST)Paris-Montsouris, France (7156): Vitesse du vent & gusts: 16.08.2018 01:00:00 - 22.08.2018 01:00:00 (CEST)Paris-Montsouris, France (7156): Direction du vent: 16.08.2018 01:00:00 - 22.08.2018 01:00:00 (CEST)Paris-Montsouris, France (7156): reduced air pressure: 16.08.2018 01:00:00 - 22.08.2018 01:00:00 (CEST)Paris-Montsouris, France (7156): visibility: 16.08.2018 01:00:00 - 22.08.2018 01:00:00 (CEST)Paris-Montsouris, France (7156): Ensoleillement: 16.08.2018 01:00:00 - 22.08.2018 01:00:00 (CEST)Paris-Montsouris, France (7156): Quantités de précipitations: 16.08.2018 01:00:00 - 22.08.2018 01:00:00 (CEST)
Date & Time tt [°C] td [°C] tt 5cm [°C] tt -20cm [°C] tt -100cm [°C] ff [km/h] ff [knt] fx [km/h] fx [knt] dd ppp [hPa] vv [km] sd [min] rr [mm]
22.08.2018 01:00:00 20,8 16,4 17,0 21,4 18,8 4 2 11 6 NNE 1019,0 20 0 0,0
22.08.2018 00:00:00 21,4 16,4 17,8 21,4 18,7 7 4 13 7 NE 1019,1 20 0 0,0
21.08.2018 23:00:00 21,9 16,4 18,3 21,5 18,8 5 3 15 8 NE 1019,2 20 0 0,0
21.08.2018 22:00:00 22,7 15,8 19,1 21,5 18,7 7 4 18 10 NE 1019,1 20 0 0,0
21.08.2018 21:00:00 24,0 16,5 22,7 21,6 18,8 10 5 19 11 NE 1018,5 20 0 0,0
21.08.2018 20:00:00 24,9 16,6 24,8 21,5 18,8 7 4 21 12 NE 1018,2 20 0 0,0
21.08.2018 19:00:00 25,6 16,4 26,2 21,5 18,8 4 2 18 10 NNE 1018,4 20 0 0,0
21.08.2018 18:00:00 25,9 15,9 27,2 21,3 18,8 6 3 16 8 NNE 1018,6 20 0 0,0
21.08.2018 17:00:00 25,9 16,2 27,7 21,2 18,8 8 5 21 11 N 1019,2 20 10 0,0
21.08.2018 16:00:00 26,0 16,0 29,0 21,0 18,8 4 2 21 11 E 1019,6 20 0 0,0
21.08.2018 15:00:00 25,3 16,4 28,5 20,9 18,8 8 4 18 10 N 1020,0 20 1 0,0
21.08.2018 14:00:00 25,4 16,8 28,5 20,7 18,8 6 3 13 7 N 1020,4 20 11 0,0
21.08.2018 13:00:00 24,8 17,0 29,0 20,6 18,7 5 3 13 7 SW 1020,8 20 33 0,0
21.08.2018 12:00:00 23,5 16,3 25,1 20,5 18,8 5 3 13 7 NNW 1021,3 20 12 0,0
21.08.2018 11:00:00 22,4 16,4 24,2 20,5 18,8 4 2 14 8 E 1021,7 20 0 0,0
21.08.2018 10:00:00 21,6 16,1 22,2 20,5 18,8 3 2 9 5 N 1021,5 20 0 0,0
21.08.2018 09:00:00 21,0 16,2 20,6 20,5 18,8 5 3 10 5 ENE 1021,3 20 0 0,0
21.08.2018 08:00:00 20,4 15,8 19,3 20,6 18,8 7 4 11 6 NE 1021,2 20 0 0,0
21.08.2018 07:00:00 20,1 15,3 19,2 20,7 18,8 4 2 15 8 NE 1020,9 13 0 0,0
21.08.2018 06:00:00 20,1 15,3 19,3 20,7 18,8 7 4 16 9 ENE 1020,8 20 0 0,0
21.08.2018 05:00:00 20,2 15,6 17,7 20,8 18,8 8 5 18 10 NE 1021,0 20 0 0,0
21.08.2018 04:00:00 19,5 15,4 16,4 20,9 18,8 8 4 14 8 NNE 1021,2 20 0 0,0
21.08.2018 03:00:00 19,9 15,1 16,4 21,0 18,8 6 4 13 7 NNE 1021,4 20 0 0,0
21.08.2018 02:00:00 20,9 15,4 18,3 21,1 18,8 5 3 17 9 N 1021,3 20 0 0,0
21.08.2018 01:00:00 21,8 15,4 18,5 21,1 18,8 9 5 22 12 NE 1021,3 20 0 0,0
21.08.2018 00:00:00 22,7 15,5 21,1 21,2 18,8 9 5 19 10 NE 1021,4 20 0 0,0
20.08.2018 23:00:00 22,7 15,5 21,2 21,2 18,7 6 3 16 9 NNE 1021,4 20 0 0,0
20.08.2018 22:00:00 22,9 15,2 21,6 21,2 18,8 6 3 16 9 NNE 1021,0 20 0 0,0
20.08.2018 21:00:00 23,2 15,3 22,2 21,2 18,8 10 5 21 12 NNE 1020,6 20 0 0,0
20.08.2018 20:00:00 23,6 15,4 23,4 21,2 18,8 8 4 18 10 N 1020,4 20 0 0,0
20.08.2018 19:00:00 23,8 15,3 25,0 21,1 18,7 6 4 17 9 NNE 1020,5 20 1 0,0
20.08.2018 18:00:00 23,5 15,0 24,8 21,0 18,8 10 5 20 11 N 1021,0 20 0 0,0
20.08.2018 17:00:00 24,0 15,2 26,9 20,9 18,8 7 4 19 11 NNE 1021,0 20 3 0,0
20.08.2018 16:00:00 23,1 15,2 24,7 20,8 18,8 6 4 25 13 NW 1021,5 20 3 0,0
20.08.2018 15:00:00 22,5 16,1 24,5 20,7 18,7 8 5 23 13 NW 1021,8 20 0 0,0
20.08.2018 14:00:00 22,4 16,4 25,1 20,7 18,8 13 7 26 14 NNW 1021,7 20 1 0,0
20.08.2018 13:00:00 22,0 16,7 23,3 20,6 18,8 11 6 22 12 W 1021,9 20 0 0,0
20.08.2018 12:00:00 21,2 16,8 22,0 20,6 18,8 8 4 21 12 NW 1022,0 20 0 0,0
20.08.2018 11:00:00 20,8 17,0 20,4 20,6 18,8 7 4 20 11 NW 1022,0 20 0 0,0
20.08.2018 10:00:00 20,2 17,2 20,2 20,6 18,8 10 6 26 14 NNW 1022,0 20 2 0,0
20.08.2018 09:00:00 19,6 17,9 18,8 20,6 18,8 8 4 19 10 WNW 1021,6 20 0 0,2
20.08.2018 08:00:00 19,9 17,9 18,9 20,7 18,8 10 6 22 12 WNW 1021,3 2,8 0 0,0
20.08.2018 07:00:00 20,3 17,3 19,0 20,7 18,8 6 3 21 12 NW 1020,7 17 0 0,0
20.08.2018 06:00:00 20,5 17,1 20,0 20,8 18,8 7 4 23 13 NW 1020,7 20 0 0,0
20.08.2018 05:00:00 20,5 16,9 19,0 20,9 18,8 8 4 23 12 NW 1020,5 20 0 0,0
20.08.2018 04:00:00 20,5 16,7 18,3 21,0 18,8 6 4 17 9 WNW 1020,8 20 0 0,0
20.08.2018 03:00:00 20,8 16,6 19,1 21,1 18,8 6 3 26 14 NW 1021,1 20 0 0,0
20.08.2018 02:00:00 21,0 16,6 19,2 21,1 18,8 8 5 23 12 NNW 1021,4 20 0 0,0
20.08.2018 01:00:00 21,3 16,5 19,6 21,3 18,8 9 5 25 13 N 1021,5 20 0 0,0
20.08.2018 00:00:00 22,0 16,5 20,9 21,3 18,8 16 9 36 19 NNW 1021,4 20 0 0,0
19.08.2018 23:00:00 23,4 15,4 22,4 21,4 18,8 21 11 37 20 NNW 1021,1 20 0 0,0
19.08.2018 22:00:00 25,3 13,5 23,4 21,4 18,8 12 7 28 15 NNW 1020,5 20 0 0,0
19.08.2018 21:00:00 26,3 12,4 24,6 21,5 18,8 11 6 22 12 NNW 1020,1 20 34 0,0
19.08.2018 20:00:00 27,3 12,5 26,5 21,4 18,8 6 4 28 15 WNW 1019,9 20 53 0,0
19.08.2018 19:00:00 28,5 13,2 32,2 21,2 18,8 8 5 27 14 W 1020,0 20 60 0,0
19.08.2018 18:00:00 28,1 13,6 32,6 21,0 18,8 11 6 27 15 W 1020,4 20 60 0,0
19.08.2018 17:00:00 28,3 14,2 34,6 20,8 18,8 9 5 27 15 W 1020,7 20 60 0,0
19.08.2018 16:00:00 27,1 13,4 34,4 20,5 18,8 8 4 24 13 NW 1021,1 20 60 0,0
19.08.2018 15:00:00 26,3 13,4 34,9 20,3 18,8 8 4 26 14 NNW 1021,8 20 60 0,0
19.08.2018 14:00:00 26,0 13,5 33,6 20,0 18,8 6 4 23 13 SW 1022,1 20 60 0,0
19.08.2018 13:00:00 24,2 13,7 28,4 19,9 18,8 6 4 23 13 WNW 1022,7 20 58 0,0
19.08.2018 12:00:00 22,9 13,9 26,5 19,7 18,8 6 3 21 11 WNW 1023,2 20 49 0,0
19.08.2018 11:00:00 22,0 13,9 24,5 19,8 18,8 10 5 24 13 W 1023,4 20 53 0,0
19.08.2018 10:00:00 20,4 13,1 22,9 19,8 18,8 7 4 18 10 W 1023,6 20 48 0,0
19.08.2018 09:00:00 19,1 13,1 15,2 19,9 18,8 6 3 15 8 SW 1023,5 20 60 0,0
19.08.2018 08:00:00 16,6 12,9 13,3 20,0 18,8 3 2 8 5 WSW 1023,5 20 29 0,0
19.08.2018 07:00:00 16,3 12,8 12,8 20,1 18,8 5 3 8 4 W 1023,4 20 0 0,0
19.08.2018 06:00:00 16,0 12,7 12,9 20,3 18,8 4 2 7 4 SW 1023,2 20 0 0,0
19.08.2018 05:00:00 16,7 12,8 13,2 20,5 18,8 4 2 7 4 SSW 1023,4 20 0 0,0
19.08.2018 04:00:00 17,1 12,8 13,5 20,6 18,8 5 3 9 5 SSW 1023,7 20 0 0,0
19.08.2018 03:00:00 17,5 12,6 13,7 20,7 18,8 5 3 10 6 NNE 1023,7 20 0 0,0
19.08.2018 02:00:00 17,9 12,6 13,9 20,8 18,8 4 2 10 5 NE 1023,9 19 0 0,0
19.08.2018 01:00:00 18,4 12,4 14,5 21,0 18,8 6 4 16 8 N 1024,0 20 0 0,0
19.08.2018 00:00:00 19,3 12,1 16,2 21,1 18,8 9 5 18 10 NNE 1024,1 20 0 0,0
18.08.2018 23:00:00 19,8 12,3 17,4 21,2 18,8 11 6 25 14 N 1023,9 20 0 0,0
18.08.2018 22:00:00 21,1 12,2 18,8 21,3 18,8 11 6 24 13 NNW 1023,4 20 0 0,0
18.08.2018 21:00:00 22,1 11,8 20,4 21,3 18,8 10 5 28 15 NNW 1022,7 20 36 0,0
18.08.2018 20:00:00 23,4 12,4 23,1 21,3 18,8 9 5 28 15 NW 1022,4 20 60 0,0
18.08.2018 19:00:00 24,6 12,9 24,3 21,1 18,8 13 7 29 16 NNW 1022,1 20 46 0,0
18.08.2018 18:00:00 25,3 12,2 31,8 20,9 18,8 10 5 23 12 NW 1022,2 20 60 0,0
18.08.2018 17:00:00 25,2 13,1 32,4 20,8 18,8 9 5 32 17 NNW 1022,4 20 60 0,0
18.08.2018 16:00:00 24,6 11,2 32,2 20,5 18,8 6 3 26 14 NNE 1022,9 20 60 0,0
18.08.2018 15:00:00 23,4 10,4 32,3 20,2 18,8 8 4 28 15 W 1023,5 20 60 0,0
18.08.2018 14:00:00 22,8 10,2 31,3 20,0 18,8 9 5 28 15 NNW 1023,9 20 60 0,0
18.08.2018 13:00:00 21,7 9,9 29,6 19,9 18,8 6 3 25 13 WNW 1024,2 20 60 0,0
18.08.2018 12:00:00 20,7 10,8 28,9 19,8 18,8 9 5 26 14 WNW 1024,5 20 60 0,0
18.08.2018 11:00:00 19,6 11,6 26,5 19,8 18,8 7 4 17 9 NW 1024,7 20 60 0,0
18.08.2018 10:00:00 18,6 11,7 22,4 19,8 18,8 5 3 16 9 WNW 1024,7 20 60 0,0
18.08.2018 09:00:00 17,3 11,1 14,2 20,0 18,8 6 3 15 8 W 1024,4 20 60 0,0
18.08.2018 08:00:00 15,5 10,7 11,7 20,1 18,8 5 3 9 5 W 1024,2 20 48 0,0
18.08.2018 07:00:00 14,9 10,7 11,5 20,3 18,8 4 2 7 4 WSW 1023,9 20 0 0,0
18.08.2018 06:00:00 15,2 10,2 11,1 20,5 18,8 3 1 14 8 NW 1023,9 20 0 0,0
18.08.2018 05:00:00 15,0 9,8 11,3 20,6 18,8 6 3 13 7 N 1023,7 20 0 0,0
18.08.2018 04:00:00 15,9 9,8 12,8 20,7 18,8 6 4 20 11 N 1023,7 20 0 0,0
18.08.2018 03:00:00 16,7 10,3 14,2 20,9 18,8 11 6 21 11 N 1023,9 20 0 0,0
18.08.2018 02:00:00 16,9 10,5 13,5 21,1 18,8 9 5 22 12 N 1023,9 20 0 0,0
18.08.2018 01:00:00 17,6 10,5 14,8 21,2 18,8 11 6 25 13 NNE 1023,7 20 0 0,0
18.08.2018 00:00:00 18,1 10,9 15,6 21,4 18,8 12 7 28 15 NNE 1023,4 20 0 0,0
17.08.2018 23:00:00 19,2 11,0 17,0 21,5 18,8 17 9 37 20 NNE 1022,8 20 0 0,0
17.08.2018 22:00:00 20,7 10,8 18,5 21,6 18,8 15 8 30 16 N 1022,2 20 0 0,0
17.08.2018 21:00:00 21,7 9,2 19,6 21,6 18,8 10 5 29 16 N 1021,2 20 34 0,0
17.08.2018 20:00:00 22,9 8,6 22,2 21,6 18,8 10 5 27 14 NNW 1020,5 20 44 0,0
17.08.2018 19:00:00 24,1 9,3 28,7 21,5 18,8 12 6 27 15 N 1020,2 20 60 0,0
17.08.2018 18:00:00 24,1 8,5 30,3 21,4 18,8 10 5 37 20 N 1020,0 20 60 0,0
17.08.2018 17:00:00 24,4 9,2 30,0 21,2 18,8 14 8 32 17 N 1020,1 20 60 0,0
17.08.2018 16:00:00 24,1 9,3 25,3 21,0 18,8 14 7 30 16 WNW 1020,4 20 48 0,0
17.08.2018 15:00:00 23,7 10,7 25,4 20,8 18,8 11 6 29 16 NNW 1020,6 20 32 0,0
17.08.2018 14:00:00 22,6 10,4 24,7 20,6 18,8 12 6 31 17 N 1020,6 20 42 0,0
17.08.2018 13:00:00 21,7 11,1 22,6 20,5 18,8 9 5 25 14 N 1020,5 20 32 0,0
17.08.2018 12:00:00 21,3 11,0 22,6 20,4 18,8 10 5 29 16 NNE 1020,5 20 49 0,0
17.08.2018 11:00:00 20,2 13,4 22,1 20,4 18,8 12 7 30 16 N 1020,3 20 50 0,0
17.08.2018 10:00:00 17,7 13,0 17,9 20,6 18,8 13 7 30 16 N 1019,8 20 3 0,0
17.08.2018 09:00:00 17,0 13,3 16,1 20,6 18,8 10 5 26 14 N 1019,4 20 0 0,0
17.08.2018 08:00:00 16,5 12,8 15,1 20,8 18,8 14 7 32 17 N 1019,0 20 0 0,0
17.08.2018 07:00:00 16,5 12,3 15,1 20,9 18,8 15 8 35 19 N 1018,4 16 0 0,0
17.08.2018 06:00:00 16,9 12,0 16,2 21,0 18,8 16 9 36 19 N 1017,4 20 0 0,0
17.08.2018 05:00:00 17,8 14,3 16,4 21,1 18,8 17 9 35 19 N 1016,7 20 0 0,0
17.08.2018 04:00:00 17,7 15,0 16,4 21,2 18,8 13 7 39 21 N 1016,7 20 0 0,0
17.08.2018 03:00:00 17,8 15,4 16,3 21,3 18,8 13 7 32 17 N 1016,2 20 0 1,8
17.08.2018 02:00:00 19,3 14,8 17,5 21,4 18,8 13 7 34 18 NNE 1015,7 20 0 0,0
17.08.2018 01:00:00 19,9 14,0 19,0 21,5 18,9 20 11 41 22 N 1016,2 20 0 0,0
17.08.2018 00:00:00 20,6 14,3 19,8 21,5 18,8 15 8 39 21 N 1016,0 20 0 0,0
16.08.2018 23:00:00 21,6 15,2 20,8 21,7 18,9 19 11 41 22 N 1015,1 20 0 0,0
16.08.2018 22:00:00 22,8 15,9 21,8 21,7 18,8 21 12 52 28 N 1014,2 20 0 0,0
16.08.2018 21:00:00 23,8 15,8 22,6 21,7 18,9 19 11 44 24 N 1013,3 20 0 0,0
16.08.2018 20:00:00 27,8 15,5 27,1 21,6 18,8 16 9 36 19 NNW 1012,0 20 16 0,0
16.08.2018 19:00:00 30,4 12,8 31,7 21,4 18,8 8 4 20 11 WNW 1011,9 20 51 0,0
16.08.2018 18:00:00 30,5 12,4 37,9 21,2 18,8 4 2 27 14 W 1012,3 20 60 0,0
16.08.2018 17:00:00 30,9 12,8 37,9 20,9 18,8 7 4 24 13 SSW 1012,8 20 60 0,0
16.08.2018 16:00:00 29,9 14,8 37,7 20,7 18,8 9 5 23 13 W 1013,4 20 60 0,0
16.08.2018 15:00:00 28,8 14,6 36,6 20,4 18,8 6 3 21 11 S 1014,0 20 60 0,0
16.08.2018 14:00:00 28,3 14,2 35,5 20,1 18,8 8 4 21 11 SW 1014,5 20 60 0,0
16.08.2018 13:00:00 27,3 15,3 35,0 19,8 18,9 10 6 24 13 S 1015,2 20 60 0,0
16.08.2018 12:00:00 25,8 15,5 32,0 19,7 18,8 6 3 17 9 WSW 1015,8 20 60 0,0
16.08.2018 11:00:00 24,6 15,2 28,6 19,6 18,9 10 5 17 9 SSW 1016,4 20 60 0,0
16.08.2018 10:00:00 22,4 15,3 24,2 19,7 18,9 5 3 12 6 S 1016,7 20 60 0,0
16.08.2018 09:00:00 19,1 14,8 16,0 19,8 18,9 6 3 10 5 S 1016,9 20 60 0,0
16.08.2018 08:00:00 17,0 14,5 13,3 19,9 18,9 3 1 5 3 SSE 1017,3 20 29 0,0
16.08.2018 07:00:00 16,5 14,3 13,2 20,0 18,9 3 1 8 5 S 1017,3 20 0 0,0
16.08.2018 06:00:00 17,0 14,5 13,0 20,1 18,9 4 2 6 3 S 1017,3 20 0 0,0
16.08.2018 05:00:00 17,2 14,3 13,5 20,3 18,9 4 2 6 4 N 1017,7 20 0 0,0
16.08.2018 04:00:00 17,3 14,2 13,4 20,4 18,9 4 2 9 5 NNW 1018,2 20 0 0,0
16.08.2018 03:00:00 18,2 14,3 14,3 20,5 18,9 5 3 10 5 WNW 1018,5 20 0 0,0
16.08.2018 02:00:00 18,6 14,1 15,0 20,7 18,9 5 3 12 7 W 1018,9 20 0 0,0
16.08.2018 01:00:00 19,5 13,7 14,6 20,8 18,9 7 4 15 8 W 1018,9 20 0 0,0

tt = Température de l'air
td = dewpoint
tt 5cm = Température de l'air 5cm
tt -20cm = Température de l'air -20cm
tt -100cm = Température de l'air -100cm
ff = Vitesse du vent
fx = gusts
dd = Direction du vent
ppp = reduced air pressure
vv = visibility
sd = Ensoleillement
rr = Quantités de précipitations

stations d'obs. à proximité